Regional Weather Roundup
Issued by NWS

Current Version | Previous Version | Text Only | Print | Product List | Glossary Off
Versions: 1 2 3 4 5 6 7 8 9 10 11 12 13 14 15 16 17 18 19 20 21 22 23 24 25 26 27 28 29 30 31 32 33 34 35 36 37 38 39 40 41 42 43 44 45 46 47 48 49 50

000
ASUS43 KLMK 141310
RWRKY
KENTUCKY REGIONAL WEATHER ROUNDUP
NATIONAL WEATHER SERVICE LOUISVILLE KY
800 AM EST THU DEC 14 2017

NOTE "FAIR" INDICATES FEW OR NO CLOUDS BELOW 12,000 FEET
WITH NO SIGNIFICANT WEATHER AND/OR OBSTRUCTIONS TO VISIBILITY.

KYZ001>023-026-027-061>063-070>075-141400-
WESTERN AND SOUTH CENTRAL KENTUCKY

CITY           SKY/WX    TMP DP  RH WIND       PRES   REMARKS
PADUCAH        CLOUDY    37  24  59 N7        29.98R WCI  32
HENDERSON      CLEAR     29  21  72 N9        30.00R WCI  20
OWENSBORO      CLOUDY    29  21  72 N6        29.99R WCI  23
HOPKINSVILLE   CLOUDY    35  24  63 N8        29.95R WCI  29
BOWLING GREEN  CLOUDY    37  26  64 VRB3      29.95R
GLASGOW        CLOUDY    35  26  71 N3        29.93R
$$

KYZ024-025-028>034-038-045-046-053-141400-
NORTH CENTRAL KENTUCKY

CITY           SKY/WX    TMP DP  RH WIND       PRES   REMARKS
LOUISVILLE/SDF CLOUDY    32  20  61 N15       29.95R WCI  22
LOUISVILLE/LOU CLOUDY    32  21  64 N6        29.97R WCI  26
FORT KNOX      CLEAR     27  19  73 NW5       29.93R WCI  22
$$

KYZ035>037-039>044-047>052-055>060-089>105-141400-
NORTHEAST KENTUCKY

CITY           SKY/WX    TMP DP  RH WIND       PRES   REMARKS
LEXINGTON      CLOUDY    30  20  66 NW9       29.91R WCI  22
COVINGTON      CLOUDY    25  17  72 N13       29.93R WCI  14
FRANKFORT      CLOUDY    31  18  58 N9        29.92R WCI  23
$$

KYZ054-064>069-076>088-106>120-141400-
SOUTHEAST KENTUCKY

CITY           SKY/WX    TMP DP  RH WIND       PRES   REMARKS
JACKSON        CLOUDY    35  25  66 NW7       29.86R WCI  29
LONDON         CLOUDY    36  25  64 N7        29.88R WCI  30
SOMERSET       CLOUDY    36  27  69 NW6       29.91R WCI  31
MIDDLESBORO    CLOUDY    39  29  68 N12       29.87R WCI  32
MONTICELLO     CLOUDY    37  28  70 N9        29.91R WCI  30
$$




USA.gov is the U.S. government's official web portal to all federal, state and local government web resources and services.